Date String (YYYY-MM-DD hh:mm:ss) UTC,Instrument flags,Ambient pressure (hPa),Sample flow (lpm),Bypass flow (lpm),Sample temperature (°C),Ambient temperature (°C),ASC tube jacket temperature (°C),LED temperature (°C),Box temperature (°C),Sample RH (%),Span deviation,Mass concentration (μg/m³),Mass concentration (μg/m³),Mass concentration (μg/m³)
DateTimeUTC,F1_M11,P_M11,Q1_M11,Q2_M11,T1_M11,T2_M11,T3_M11,T4_M11,T5_M11,U1_M11,ZSPAN_M11,X0_M11,X2_M11,X1_M11
2022-06-09 22:00:00,,0823.7,4.99,0.00,29.2,28.1,00.0,38.0,31.2,16.2,0000.0,0013.58,0004.73,0002.85
2022-06-09 22:01:00,,0823.7,5.00,0.00,29.3,28.2,00.0,38.1,31.2,14.2,0000.0,0013.67,0004.76,0002.87
2022-06-09 22:02:00,,0823.7,5.01,0.00,29.3,28.4,00.0,38.1,31.3,16.2,0000.0,0013.54,0004.73,0002.85
2022-06-09 22:03:00,,0823.7,4.99,0.00,29.4,28.5,00.0,38.1,31.4,18.6,0000.0,0013.51,0004.71,0002.84
2022-06-09 22:04:00,,0823.7,5.00,0.00,29.4,28.4,00.0,38.1,31.4,19.0,0000.0,0013.92,0004.71,0002.84
2022-06-09 22:05:00,,0823.6,5.01,0.00,29.4,27.7,00.0,38.0,31.2,18.3,0000.0,0013.87,0004.76,0002.87
2022-06-09 22:06:00,,0823.6,4.99,0.00,29.3,27.5,00.0,38.0,31.1,17.8,0000.0,0012.86,0004.72,0002.87
2022-06-09 22:07:00,,0823.7,5.00,0.00,29.3,27.5,00.0,38.0,31.0,18.9,0000.0,0012.56,0004.77,0002.88
2022-06-09 22:08:00,,0823.6,5.00,0.00,29.2,27.6,00.0,38.0,31.0,20.9,0000.0,0012.36,0004.83,0002.89
2022-06-09 22:09:00,,0823.6,5.00,0.00,29.2,27.7,00.0,38.0,31.0,21.0,0000.0,0012.51,0004.78,0002.85
2022-06-09 22:10:00,,0823.7,5.00,0.00,29.2,27.9,00.0,38.0,31.1,20.3,0000.0,0013.21,0004.72,0002.82
2022-06-09 22:11:00,,0823.7,5.01,0.00,29.3,28.1,00.0,38.1,31.2,20.3,0000.0,0014.09,0004.67,0002.79
2022-06-09 22:12:00,,0823.7,5.00,0.00,29.3,28.3,00.0,38.1,31.3,19.1,0000.0,0014.55,0004.71,0002.78
2022-06-09 22:13:00,,0823.7,5.00,0.00,29.4,28.4,00.0,38.1,31.4,18.5,0000.0,0015.13,0004.76,0002.80
2022-06-09 22:14:00,,0823.7,5.00,0.00,29.4,28.3,00.0,38.1,31.3,18.8,0000.0,0015.20,0004.75,0002.80
2022-06-09 22:15:00,,0823.7,5.01,0.00,29.4,27.6,00.0,38.1,31.2,18.0,0000.0,0014.88,0004.71,0002.78
2022-06-09 22:16:00,,0823.7,4.99,0.00,29.3,27.4,00.0,38.0,31.1,19.2,0000.0,0014.55,0004.61,0002.76
2022-06-09 22:17:00,,0823.7,5.00,0.00,29.3,27.4,00.0,38.0,31.0,16.8,0000.0,0014.95,0004.63,0002.77
2022-06-09 22:18:00,,0823.7,5.00,0.00,29.2,27.5,00.0,38.0,31.0,17.5,0000.0,0015.62,0004.66,0002.79
2022-06-09 22:19:00,,0823.7,5.00,0.00,29.2,27.7,00.0,38.0,31.1,17.3,0000.0,0015.28,0004.65,0002.78
2022-06-09 22:20:00,,0823.7,5.00,0.00,29.2,27.8,00.0,38.0,31.1,17.6,0000.0,0015.26,0004.64,0002.79
2022-06-09 22:21:00,,0823.7,5.00,0.00,29.3,28.0,00.0,38.1,31.2,18.7,0000.0,0014.87,0004.66,0002.80
2022-06-09 22:22:00,,0823.8,5.00,0.00,29.3,28.2,00.0,38.1,31.3,18.5,0000.0,0016.07,0004.72,0002.81
2022-06-09 22:23:00,,0823.8,5.00,0.00,29.3,28.2,00.0,38.1,31.3,19.9,0000.0,0016.20,0004.70,0002.81
2022-06-09 22:24:00,,0823.8,4.99,0.00,29.3,27.6,00.0,38.0,31.1,18.9,0000.0,0015.45,0004.68,0002.81
2022-06-09 22:25:00,,0823.8,5.00,0.00,29.2,27.3,00.0,38.0,31.0,19.6,0000.0,0015.53,0004.67,0002.81
2022-06-09 22:26:00,,0823.8,5.01,0.00,29.2,27.3,00.0,38.0,30.9,20.2,0000.0,0015.90,0004.69,0002.81
2022-06-09 22:27:00,,0823.8,5.00,0.00,29.1,27.4,00.0,38.0,30.9,21.0,0000.0,0015.94,0004.77,0002.80
2022-06-09 22:28:00,,0823.8,5.00,0.00,29.1,27.6,00.0,38.0,30.9,20.8,0000.0,0015.96,0004.77,0002.79
2022-06-09 22:29:00,,0823.8,5.00,0.00,29.1,27.8,00.0,38.0,31.0,20.9,0000.0,0015.30,0004.75,0002.79
2022-06-09 22:30:00,,0823.8,4.99,0.00,29.2,27.9,00.0,38.0,31.1,20.1,0000.0,0015.28,0004.73,0002.79
2022-06-09 22:31:00,,0823.8,5.00,0.00,29.2,28.1,00.0,38.0,31.2,18.2,0000.0,0015.12,0004.70,0002.81
2022-06-09 22:32:00,,0823.8,5.01,0.00,29.3,28.3,00.0,38.0,31.3,18.4,0000.0,0015.31,0004.73,0002.81
2022-06-09 22:33:00,,0823.8,5.00,0.00,29.3,28.0,00.0,38.0,31.2,20.0,0000.0,0013.31,0004.76,0002.81
2022-06-09 22:34:00,,0823.7,4.99,0.00,29.2,27.4,00.0,38.0,31.0,18.2,0000.0,0012.61,0004.75,0002.82
2022-06-09 22:35:00,,0823.8,5.02,0.00,29.1,27.3,00.0,37.9,30.9,17.6,0000.0,0012.54,0004.71,0002.81
2022-06-09 22:36:00,,0823.7,5.00,0.00,29.1,27.3,00.0,37.9,30.9,20.2,0000.0,0012.30,0004.67,0002.79
2022-06-09 22:37:00,,0823.7,4.99,0.00,29.1,27.5,00.0,37.9,30.9,19.3,0000.0,0011.48,0004.64,0002.81
2022-06-09 22:38:00,,0823.8,4.99,0.00,29.1,27.6,00.0,37.9,31.0,18.6,0000.0,0011.15,0004.60,0002.83
2022-06-09 22:39:00,,0823.7,5.00,0.00,29.1,27.8,00.0,38.0,31.1,17.6,0000.0,0011.03,0004.60,0002.83
2022-06-09 22:40:00,,0823.7,4.99,0.00,29.2,28.0,00.0,38.0,31.1,17.2,0000.0,0011.12,0004.61,0002.81
2022-06-09 22:41:00,,0823.8,5.00,0.00,29.2,28.2,00.0,38.0,31.2,16.0,0000.0,0011.19,0004.60,0002.80
2022-06-09 22:42:00,,0823.7,5.01,0.00,29.2,28.0,00.0,38.0,31.1,16.3,0000.0,0011.63,0004.64,0002.78
2022-06-09 22:43:00,,0823.7,4.99,0.00,29.2,27.4,00.0,37.9,31.0,19.0,0000.0,0011.60,0004.63,0002.77
2022-06-09 22:44:00,,0823.7,5.00,0.00,29.1,27.2,00.0,37.9,30.9,17.0,0000.0,0011.57,0004.58,0002.78
2022-06-09 22:45:00,,0823.7,5.01,0.00,29.1,27.3,00.0,37.9,30.9,16.1,0000.0,0012.00,0004.59,0002.76
2022-06-09 22:46:00,,0823.7,5.00,0.00,29.1,27.4,00.0,37.9,30.9,16.6,0000.0,0012.14,0004.61,0002.74
2022-06-09 22:47:00,,0823.7,5.00,0.00,29.1,27.6,00.0,37.9,30.9,15.9,0000.0,0012.28,0004.66,0002.75
2022-06-09 22:48:00,,0823.6,5.01,0.00,29.1,27.8,00.0,37.9,31.0,15.9,0000.0,0012.75,0004.70,0002.75
2022-06-09 22:49:00,,0823.7,5.01,0.00,29.1,28.0,00.0,37.9,31.1,15.1,0000.0,0013.42,0004.73,0002.72
2022-06-09 22:50:00,,0823.7,4.99,0.00,29.2,28.2,00.0,38.0,31.2,16.7,0000.0,0013.95,0004.80,0002.69
2022-06-09 22:51:00,,0823.7,5.01,0.00,29.3,28.3,00.0,38.0,31.2,18.2,0000.0,0013.83,0004.78,0002.72
2022-06-09 22:52:00,,0823.7,5.01,0.00,29.2,27.7,00.0,37.9,31.1,14.4,0000.0,0014.25,0004.84,0002.73
2022-06-09 22:53:00,,0823.7,4.99,0.00,29.2,27.2,00.0,37.9,30.9,12.7,0000.0,0014.37,0004.88,0002.73
2022-06-09 22:54:00,,0823.7,4.99,0.00,29.1,27.2,00.0,37.9,30.9,14.2,0000.0,0014.47,0004.91,0002.74
2022-06-09 22:55:00,,0823.6,5.01,0.00,29.1,27.3,00.0,37.9,30.9,13.7,0000.0,0014.69,0004.92,0002.73
2022-06-09 22:56:00,,0823.6,4.99,0.00,29.1,27.5,00.0,37.9,30.9,13.1,0000.0,0014.38,0004.87,0002.73
2022-06-09 22:57:00,,0823.6,4.98,0.00,29.1,27.7,00.0,37.9,31.0,13.4,0000.0,0015.01,0004.92,0002.75
2022-06-09 22:58:00,,0823.6,5.00,0.00,29.1,27.9,00.0,37.9,31.1,12.9,0000.0,0015.39,0004.93,0002.75
2022-06-09 22:59:00,,0823.5,5.00,0.00,29.2,28.1,00.0,38.0,31.2,12.3,0000.0,0015.19,0004.88,0002.75
